Location: Platte
(43.3870°N, 98.8440°W)
Time: 00:24:44
(UTC-05:00)

Daily predictions for brighter satellites

Satellite Brightness Start Highest point End
(mag) Time Altitude Azimuth Time Altitude Azimuth Time Altitude Azimuth
Cosmos 1553 Rocket 3.9 00:07:58 82° WNW 00:07:58 82° WNW 00:14:14 10° N
Cosmos 1844 Rocket 3.1 00:02:37 10° NNW 00:07:24 54° WNW 00:07:24 54° WNW
Cosmos 1898 Rocket 4.4 00:12:16 10° NNW 00:16:08 44° NNE 00:16:08 44° NNE
CZ-2C R/B 4.4 00:14:51 10° NE 00:17:28 23° ENE 00:17:28 23° ENE
H-2A R/B 4.2 00:21:27 21° WNW 00:21:27 21° WNW 00:23:41 10° NW
Meteor 1-11 Rocket 4.1 00:15:56 10° NNW 00:20:33 57° NW 00:20:33 57° NW
Cosmos 2219 Rocket 2.7 00:27:00 57° N 00:27:00 57° N 00:31:36 10° NNE
NOSS 0 Rocket 4.3 00:29:03 58° NE 00:29:03 58° NE 00:33:54 10° NNE
S3M 4.4 00:36:15 53° WNW 00:36:15 53° WNW 00:42:18 10° N
NOSS 3-1 (C) 3.7 00:43:38 65° NNW 00:43:38 65° NNW 00:49:35 10° NNE
Terra 4.0 00:44:38 18° WNW 00:44:38 18° WNW 00:47:01 10° NW
Cosmos 1709 Rocket 4.2 00:38:47 10° N 00:44:25 69° NNE 00:44:25 69° NNE
H-2A R/B 4.5 00:45:19 11° W 00:45:19 11° W 00:46:55 10° WNW
Cosmos 2297 4.4 00:41:06 10° NNW 00:45:40 49° NNE 00:45:40 49° NNE
COSMOS 2428 4.2 00:46:58 27° W 00:48:27 31° NW 00:53:29 10° N
NOSS 3-1 (A) 3.8 00:57:56 61° N 00:57:56 61° N 01:03:29 10° NE
ATLAS 2AS CENTAUR R/B 4.0 01:00:28 32° E 01:00:28 32° E 01:05:45 10° NE
Cosmos 2285 Rocket 4.4 01:10:31 59° NNE 01:10:31 59° NNE 01:15:38 10° NNE
SL-16 R/B 3.3 01:15:11 39° NE 01:15:11 39° NE 01:18:43 10° NNE
CZ-2C R/B 4.5 01:26:39 31° NNW 01:26:39 31° NNW 01:29:13 10° NNW
Cosmos 2333 Rocket 3.6 01:28:48 31° WNW 01:29:05 31° NW 01:34:12 10° N
CZ-4C R/B 3.4 01:24:31 10° NW 01:30:05 47° W 01:30:05 47° W
ATLAS 3B R/B 3.2 01:31:07 10° NNW 01:37:47 50° NE 01:38:27 48° ENE
Cosmos 2237 Rocket 3.4 01:38:23 35° NW 01:38:23 35° NW 01:43:19 10° N
Cosmos 2278 Rocket 4.1 01:35:44 10° NW 01:37:59 19° WNW 01:37:59 19° WNW
CZ-2C R/B 3.9 01:54:56 10° N 01:58:59 36° NW 01:58:59 36° NW
USA 215 3.4 02:03:22 10° NE 02:08:48 61° ENE 02:08:48 61° ENE
Nadezhda 1 Rocket 4.3 02:17:25 58° NNW 02:17:25 58° NNW 02:22:38 10° N
Cosmos 1603 4.2 02:32:00 57° N 02:32:00 57° N 02:36:37 10° NNE
ATLAS CENTAUR R/B 3.7 02:36:49 21° N 02:36:49 21° N 02:38:42 10° NNE
Cosmos 2369 Rocket 2.7 02:34:15 10° NNW 02:38:41 56° N 02:38:41 56° N
Cosmos 2341 Rocket 4.1 02:35:54 10° N 02:41:17 66° NW 02:41:17 66° NW
USA 267 3.7 02:36:24 10° ESE 02:42:47 59° NNE 02:49:11 10° NW
ATLAS 2AS CENTAUR R/B 3.2 02:47:53 54° W 02:49:18 61° NW 02:57:23 10° NNE
Resurs 1-4 Rocket 4.1 02:53:28 10° NE 02:57:08 19° E 02:58:03 18° ESE
SL-16 R/B 4.0 02:57:01 21° WNW 02:57:44 21° NW 03:01:59 10° N
Cosmos 2228 4.5 02:53:38 10° N 02:56:28 36° NNE 02:56:28 36° NNE
Cosmos 1241 Rocket 4.5 02:58:57 77° WNW 02:59:00 77° WNW 03:05:40 10° NNE
CZ-2D R/B 4.0 02:56:42 10° NE 03:00:33 20° E 03:01:33 19° ESE
NOSS 3-2 (A) 4.2 02:56:15 10° NNW 03:03:39 67° NE 03:11:43 10° SE
Cosmos 1943 Rocket 2.4 03:00:44 10° NNW 03:06:24 66° ENE 03:06:33 66° ENE
Cosmos 1959 Rocket 4.4 03:01:36 10° N 03:07:53 87° E 03:07:58 86° SE
SL-08 R/B 4.4 03:01:57 10° N 03:08:17 79° E 03:08:37 76° ESE
Cosmos 44 Rocket 4.0 03:09:44 10° NNW 03:13:41 49° NNE 03:13:41 49° NNE
Cosmos 1809 Rocket 4.3 03:10:53 10° N 03:17:03 86° E 03:17:20 82° SE
ATLAS 3B R/B 3.8 03:22:14 10° NW 03:25:39 26° WNW 03:25:39 26° WNW
CBERS-1 3.9 03:28:17 10° NNE 03:33:18 82° ENE 03:33:18 82° ENE
Cosmos 1680 Rocket 3.9 03:34:11 51° ESE 03:34:31 52° ESE 03:39:38 10° NNE
Aureole 1 Rocket 3.8 03:35:18 56° ESE 03:35:32 56° ESE 03:40:01 10° NNE
IRS-1C 4.1 03:31:01 10° NNE 03:36:21 70° ESE 03:36:45 67° SE
SL-16 R/B 2.8 03:34:30 32° SE 03:37:26 64° ENE 03:43:32 10° N
USA 238 DEB 4.3 03:34:16 10° NW 03:39:25 39° W 03:39:25 39° W
USA 238 4.3 03:34:21 10° NW 03:39:34 39° W 03:39:34 39° W
IRS-1D 4.2 03:38:29 10° NNE 03:43:32 49° E 03:44:36 42° SE
Cosmos 2218 Rocket 4.3 03:40:59 10° NNW 03:46:46 47° W 03:46:46 47° W
Lacrosse 5 rocket 3.9 03:50:27 14° SE 03:50:56 14° ESE 03:53:27 10° E
Cosmos 1626 Rocket 3.8 03:52:49 64° NNW 03:52:49 64° NNW 03:56:40 10° N
USA 215 4.1 03:46:35 10° NE 03:52:40 43° NNW 03:56:07 24° W
Cosmos 1656 Rocket 3.8 03:47:26 10° NNW 03:52:52 70° ENE 03:55:59 26° SE
Cosmos 2366 rocket 4.3 03:47:28 10° NNW 03:53:29 48° W 03:53:40 47° W
GEOS 3 Rocket 3.5 03:48:36 10° NE 03:53:55 80° SE 03:54:37 67° SSW
Cosmos 1943 4.1 03:54:30 34° WNW 03:55:10 35° NW 04:00:21 10° N
UNK 3.7 03:55:05 70° SE 03:55:31 78° ENE 04:00:07 10° N
Genesis I 4.1 03:54:03 10° NNW 03:57:55 50° NE 03:59:58 24° ESE
ARIANE 5 R/B 2.8 03:53:31 10° NNE 03:58:44 63° ESE 04:00:03 47° SSE
IRS-P3 4.4 03:54:19 10° N 03:59:28 49° WNW 03:59:49 49° W
SL-08 R/B 4.2 04:01:00 36° WNW 04:01:00 36° WNW 04:04:20 10° NNW
Cosmos 1825 Rocket 4.5 04:01:11 36° SE 04:02:17 44° E 04:06:29 10° NNE
COSMOS 2455 2.9 03:56:14 10° NNW 04:02:17 80° ENE 04:08:18 10° SSE
RESURS DK-1 2.8 04:04:08 53° ESE 04:04:10 53° ESE 04:08:13 10° NE
Meteor 2-16 Rocket 4.4 04:00:55 10° NNW 04:06:55 61° W 04:08:06 51° SW
Cosmos 923 Rocket 4.0 04:06:21 58° WSW 04:07:01 64° WNW 04:12:21 10° NNE
Cosmos 1934 Rocket 4.5 04:02:07 10° N 04:08:19 59° E 04:14:22 11° SSE
Cosmos 1805 3.8 04:05:31 10° N 04:09:24 55° E 04:10:07 47° ESE
Cosmos 44 4.1 04:07:06 10° NW 04:09:34 32° NW 04:09:34 32° NW
Cosmos 1602 Rocket 4.0 04:12:38 47° WNW 04:12:38 47° WNW 04:16:40 10° N
NOSS 3-2 (C) 3.9 04:04:55 10° NW 04:12:24 69° WSW 04:20:28 10° SSE
Cosmos 1271 Rocket 3.6 04:09:50 10° N 04:13:28 45° ENE 04:14:44 32° SE
Tiangong 1 2.9 04:22:00 24° E 04:22:00 24° E 04:23:19 10° E
NPP 4.4 04:16:47 10° N 04:21:40 36° WNW 04:22:32 34° W
Cosmos 1766 3.9 04:18:37 10° NNW 04:21:46 43° WNW 04:21:46 43° WNW
Cosmos 1842 3.1 04:22:47 79° W 04:22:49 79° W 04:26:43 10° N
Cosmos 2369 Rocket 4.3 04:20:01 10° WNW 04:20:26 11° WNW 04:20:26 11° WNW
Cosmos 192 4.2 04:23:35 50° SSW 04:24:54 88° ESE 04:29:52 10° NNE
COBE Rocket 3.9 04:20:13 10° NNE 04:25:21 87° ESE 04:27:07 41° S
USA 267 3.4 04:19:39 10° SSE 04:25:53 46° SW 04:32:09 10° WNW
Abrixas 3.5 04:30:37 41° NNE 04:30:37 41° NNE 04:32:49 10° ENE
CENTAUR R/B 3.4 04:22:31 10° NNW 04:30:19 68° NE 04:38:41 10° SE
Cosmos 724 4.4 04:25:12 10° NW 04:31:05 52° WSW 04:35:03 20° S
Cosmos 1544 3.0 04:31:08 10° NNW 04:34:44 64° W 04:34:44 64° W
NOSS 8 (A) 4.4 04:35:44 61° NW 04:35:46 61° NW 04:39:13 10° NNE
ADEOS Rocket 3.0 04:29:57 10° N 04:35:50 68° WNW 04:38:59 31° SW
Resurs 1-4 Rocket 2.2 04:32:10 10° N 04:37:20 57° WNW 04:39:08 38° SW
NOSS 3-4 (A) 3.9 04:36:35 31° WSW 04:39:25 54° NW 04:45:50 10° NNE
NOSS 3-4 (C) 3.9 04:36:41 32° WSW 04:39:31 54° NW 04:45:57 10° NNE
Cosmos 2098 Rocket 3.8 04:37:22 10° N 04:40:12 32° ENE 04:42:24 13° SE
Nadezhda 3 Rocket 4.4 04:38:10 34° SW 04:40:23 46° WNW 04:46:28 10° N
NOSS 2-2 (D) 4.3 04:39:11 29° S 04:40:45 43° ESE 04:45:04 10° NE
CZ-2D R/B 2.3 04:35:46 10° N 04:40:58 55° WNW 04:42:53 36° SW
MOZ.5/SAFIR/RUBIN 5/SL-8 3.7 04:37:43 18° SSE 04:41:10 89° SW 04:45:52 10° NNW
COSMOS 2406 3.2 04:39:50 35° SW 04:42:18 72° WNW 04:48:05 10° NNE
Cosmos 2112 Rocket 4.4 04:40:54 36° WSW 04:42:35 47° WNW 04:47:41 10° N
Cosmos 389 Rocket 3.8 04:42:17 10° N 04:45:47 42° ENE 04:49:12 10° SSE
Cosmos 1953 2.2 04:42:06 10° NNW 04:46:05 74° W 04:47:42 34° S
Cosmos 1943 Rocket 3.8 04:45:48 10° WNW 04:48:01 17° W 04:48:01 17° W
Cosmos 1707 3.8 04:50:18 13° SSE 04:53:31 44° E 04:57:14 10° NNE
Cosmos 1470 3.0 04:50:55 10° N 04:54:48 71° E 04:58:42 10° SSE
Cosmos 1758 Rocket 3.5 04:53:05 32° SSW 04:55:02 71° W 04:59:24 10° N
Cosmos 1624 Rocket 4.0 04:52:42 10° NNW 04:57:50 61° WSW 05:02:58 10° S
Landsat 4 3.8 04:54:10 10° SSE 04:57:52 76° ENE 05:01:37 10° N
USA 161 1.5 04:58:24 54° SW 04:58:45 60° W 05:01:40 10° NNW
NOSS 2-2 (C) 3.7 04:57:01 29° SSW 04:59:00 67° ESE 05:03:37 10° NE
Cosmos 1758 3.7 04:57:06 10° NNW 05:01:00 43° W 05:02:20 31° SW
USA 32 4.2 04:59:28 26° SSW 05:02:14 53° W 05:07:24 10° N
Cosmos-2242 3.1 04:57:51 10° N 05:02:17 82° E 05:06:40 10° S
UNKNOWN OBJECT B 3.2 05:01:36 10° N 05:05:26 46° WNW 05:07:02 29° SW
ADEOS 4.5 05:02:27 10° N 05:07:03 32° WNW 05:09:24 22° WSW
Cosmos 1727 Rocket 4.0 05:01:42 10° S 05:07:54 86° E 05:14:06 10° N
Cosmos 2056 Rocket 3.7 05:05:41 10° NNW 05:10:50 51° WSW 05:15:54 10° S
Cosmos 921 Rocket 3.2 05:08:37 10° NNW 05:12:59 52° WSW 05:17:21 10° S
Cosmos 1153 Rocket 4.4 05:09:06 10° N 05:15:17 90° SSE 05:21:25 10° S
Cosmos 1953 Rocket 4.1 05:14:04 24° SW 05:16:14 40° WNW 05:20:28 10° N
DNEPR-1 R/B 3.8 05:14:39 10° NNW 05:18:53 71° NE 05:23:17 10° SE
SL-16 R/B 3.7 05:19:34 18° WSW 05:21:30 21° W 05:26:05 10° NW
PSLV R/B 4.0 05:17:51 10° NNE 05:21:57 80° ESE 05:26:05 10° S
CZ-4B R/B 3.4 05:19:20 10° NNE 05:23:34 66° ESE 05:27:58 10° S
MOS 1 Rocket 3.3 05:20:50 10° N 05:25:02 53° WNW 05:28:31 15° SSW
Cosmos 1378 3.2 05:23:57 10° S 05:27:41 78° E 05:31:26 10° N
SL-27 R/B 3.9 05:26:32 18° W 05:27:54 23° WNW 05:30:50 10° N
Lacrosse 5 rocket 1.6 05:26:10 18° SW 05:29:37 89° ESE 05:34:17 10° NE
MOS 1-B 4.4 05:25:48 10° N 05:31:32 63° WNW 05:37:15 10° SSW
Meteor 2-15 4.4 05:25:29 10° SSW 05:31:36 76° W 05:37:47 10° N
IRS-1C Rocket 4.3 05:31:02 10° NNE 05:36:18 73° ESE 05:41:34 10° S
ARIANE 5 R/B 4.2 05:33:46 10° NNW 05:37:21 19° WNW 05:40:24 12° W
Meteor 2-15 Rocket 4.4 05:33:07 10° SSW 05:39:15 78° W 05:45:26 10° N
RESURS DK-1 4.3 05:40:03 11° W 05:42:33 17° NW 05:45:18 10° N
Cosmos 1733 4.1 05:39:47 10° NNW 05:43:06 29° W 05:46:24 10° SSW
Okean O Rocket 1.6 05:38:39 10° N 05:43:06 79° WNW 05:47:31 10° SSW
CZ-4B DEB 4.3 05:38:24 10° NNE 05:43:57 82° ESE 05:49:25 10° SSW
Cosmos 1452 Rocket 3.5 05:40:56 10° NNW 05:46:07 60° WSW 05:51:16 10° S
Cosmos 1459 Rocket 4.0 05:40:11 10° N 05:46:22 89° WSW 05:52:35 10° S
ADEOS II 2.1 05:41:48 10° NNE 05:47:05 82° WNW 05:52:19 10° SSW
COSMOS 2455 4.2 05:43:47 10° WNW 05:47:28 17° WSW 05:51:08 10° SW
COSMOS 2487 2.5 05:46:05 10° SSW 05:49:37 66° WNW 05:53:11 10° NNE
Meteor 2-5 Rocket 3.9 05:46:42 10° SSW 05:52:18 61° WNW 05:58:04 10° N
Cosmos 1818 3.9 05:49:23 11° SW 05:54:35 54° NW 05:59:57 10° NNE
EO 1 Del DPAF 3.2 05:51:08 10° S 05:54:58 72° WSW 05:58:50 10° NNW
Cosmos 2278 3.7 05:50:13 10° NNW 05:55:52 62° WSW 06:01:29 10° S
Tiangong 1 1.0 05:53:24 10° W 05:56:10 54° SSW 05:58:58 10° ESE
Cosmos 1697 Rocket 3.2 05:50:54 10° NNW 05:56:31 67° ENE 06:02:05 10° SE
Cosmos 2369 3.8 05:56:58 10° NNW 06:02:35 56° WSW 06:08:09 10° S
EXPRESS MD2 2.8 05:58:21 10° WNW 06:02:55 82° SSW 06:05:31 10° ESE
SL-24 R/B 4.3 05:59:13 10° N 06:04:12 82° WNW 06:08:33 10° SSW
Cosmos 1420 Rocket 4.1 05:59:31 10° NNW 06:04:47 63° WSW 06:10:00 10° S
Abrixas 4.1 06:03:02 10° WNW 06:05:31 27° N 06:08:00 10° ENE
Cosmos 1048 Rocket 4.0 06:06:37 10° SSW 06:11:46 83° WNW 06:16:55 10° NNE
